{"data":{"norad_id":45759,"epoch":"2026-05-25T04:07:25.406112Z","epoch_age_seconds":57522,"freshness":"FRESH","line1":"1 45759U 20038AF  26145.17182183  .00076258  00000+0  83012-3 0  9996","line2":"2 45759  53.0464 193.7960 0007344 344.0497  16.0284 15.62748172328555","mean_motion":15.62748172,"eccentricity":0.0007344,"inclination_deg":53.0464,"raan_deg":193.796,"arg_perigee_deg":344.0497,"mean_anomaly_deg":16.0284,"bstar":0.00083012,"rev_number":32855,"period_min":92.145364544378,"perigee_km":374.75978701084,"apogee_km":384.68573142518,"semimajor_km":6757.859759218,"source":"CELESTRAK","updated_at":"2026-05-25T13:38:16.454592Z"}}